Location: Ravensburg
(47.7866°N, 9.6124°E)
Time: 19:46:04
(UTC+01:00)

ISS - Pass Details

Date: 13 November 2025
Orbit: 416 x 421 km, 51.6° (Epoch: 05 December)

Event Time Altitude Azimuth Distance (km) Brightness Sun altitude
Rises 19:40:23 0° 242° (WSW) 2,360 0.9 -29.1°
Reaches altitude 10° 19:42:28 10° 242° (WSW) 1,497 -0.3 -29.5°
Enters shadow 19:42:50 13° 242° (WSW) 1,347 -0.6 -29.5°
